Weather History for Rogers City, MI

Change the Weather History Date:

Saturday, November 2, 2013

  Actual Average (KAPN) Record (KAPN)
Temperature  
Mean Temperature 40 °F 40 °F  
Max Temperature 43 °F 49 °F 75 °F (1933)
Min Temperature 36 °F 32 °F 19 °F (1958)
Degree Days  
Heating Degree Days 26 25  
Month to date heating degree days 49  
Since 1 July heating degree days 993  
Cooling Degree Days 0 0  
Month to date cooling degree days 0  
Year to date cooling degree days 291  
Moisture  
Dew Point 33 °F    
Average Humidity 78    
Maximum Humidity 91    
Minimum Humidity 63    
Precipitation  
Precipitation 0.00 in 0.07 in 1.28 in (1992)
Month to date precipitation 0.15  
Year to date precipitation 24.46  
Snow  
Snow 0.00 in 0.10 in 1.40 in (1966)
Month to date snowfall 0.2  
Since 1 July snowfall 0.6  
Snow Depth -    
Sea Level Pressure  
Sea Level Pressure 29.90 in    
Wind  
Wind Speed 8 mph (NNE)    
Max Wind Speed 13 mph    
Max Gust Speed 22 mph    
Visibility 10 miles    
Events Rain    
T = Trace of Precipitation, MM = Missing Value Source: NWS Daily Summary

Daily Weather History Graph

Daily Weather History Graph

Search for Another Location

Airport:

Trip Planner

Search our weather history database for the weather conditions in past years. The results will help you decide how hot, cold, wet, or windy it might be!

Date:

Astronomy

Nov. 02, 2013 Rise Set
Actual Time 8:16 AM EDT 6:20 PM EDT
Civil Twilight 7:45 AM EDT 6:51 PM EDT
Nautical Twilight 7:10 AM EDT 7:26 PM EDT
Astronomical Twilight 6:35 AM EDT 8:00 PM EDT
Moon 7:10 AM EDT (11/2) 5:52 PM EDT (11/2)
Length of Visible Light 11h 06m
Length of Day
10h 04m
Waning Crescent, 1% of the Moon is Illuminated
Nov 2
Waning Crescent
Nov 3
New
Nov 10
First Quarter
Nov 17
Full
Nov 25
Last Quarter

Hourly Weather History & Observations

Time (EDT) Temp. Windchill Dew Point Humidity Pressure Visibility Wind Dir Wind Speed Gust Speed Precip Events Conditions
12:15 AM 42.8 °F 38.6 °F 39.4 °F 88% 29.65 in 7.0 mi NNW 6.9 mph - N/A Rain Light Rain
12:35 AM 43.2 °F 39.0 °F 39.9 °F 88% 29.65 in 10.0 mi NNW 6.9 mph - N/A   Overcast
12:54 AM 43.3 °F 38.6 °F 40.5 °F 90% 29.65 in 10.0 mi North 8.1 mph - N/A   Overcast
1:15 AM 43.0 °F 38.2 °F 40.3 °F 90% 29.65 in 10.0 mi NNE 8.1 mph - N/A   Overcast
1:35 AM 42.8 °F 39.3 °F 39.7 °F 89% 29.66 in 10.0 mi NNE 5.8 mph - N/A   Overcast
1:54 AM 42.8 °F 38.6 °F 39.6 °F 88% 29.67 in 10.0 mi NNE 6.9 mph - N/A   Overcast
2:15 AM 42.1 °F 37.1 °F 39.2 °F 90% 29.67 in 10.0 mi NNE 8.1 mph - N/A Rain Light Rain
2:35 AM 41.7 °F 36.1 °F 39.2 °F 91% 29.68 in 7.0 mi NE 9.2 mph - N/A Rain Light Rain
2:54 AM 41.2 °F 35.5 °F 38.8 °F 91% 29.68 in 7.0 mi NE 9.2 mph - N/A Rain Rain
3:15 AM 41.2 °F 35.5 °F 38.8 °F 91% 29.69 in 10.0 mi NE 9.2 mph - N/A Rain Light Rain
3:35 AM 41.0 °F 35.8 °F 38.3 °F 90% 29.70 in 10.0 mi NE 8.1 mph - N/A   Light Drizzle
3:55 AM 40.6 °F 34.8 °F 38.1 °F 91% 29.70 in 7.0 mi NE 9.2 mph - N/A   Drizzle
4:15 AM 40.5 °F 34.1 °F 37.8 °F 90% 29.71 in 7.0 mi NE 10.4 mph - N/A   Light Drizzle
4:35 AM 40.5 °F 35.1 °F 37.6 °F 89% 29.71 in 10.0 mi NE 8.1 mph - N/A   Light Drizzle
4:55 AM 40.5 °F 34.1 °F 37.4 °F 89% 29.72 in 10.0 mi NE 10.4 mph 16.1 mph N/A   Overcast
5:15 AM 40.3 °F 34.9 °F 37.0 °F 88% 29.72 in 10.0 mi NE 8.1 mph 17.3 mph N/A   Overcast
5:34 AM 40.3 °F 33.4 °F 36.5 °F 86% 29.73 in 10.0 mi NE 11.5 mph 16.1 mph N/A   Overcast
5:55 AM 40.3 °F 33.9 °F 36.7 °F 87% 29.74 in 10.0 mi NE 10.4 mph 18.4 mph N/A   Overcast
6:15 AM 40.1 °F 32.7 °F 36.0 °F 85% 29.75 in 10.0 mi NE 12.7 mph 18.4 mph N/A   Overcast
6:34 AM 39.6 °F 32.1 °F 35.4 °F 85% 29.76 in 10.0 mi NE 12.7 mph 17.3 mph N/A   Overcast
6:55 AM 39.6 °F 33.0 °F 35.1 °F 84% 29.77 in 10.0 mi NNE 10.4 mph - N/A   Overcast
7:14 AM 39.2 °F 33.6 °F 34.9 °F 84% 29.78 in 10.0 mi NE 8.1 mph 16.1 mph N/A   Light Drizzle
7:35 AM 39.2 °F 33.6 °F 35.2 °F 86% 29.79 in 10.0 mi ENE 8.1 mph - N/A   Overcast
7:55 AM 39.4 °F 31.8 °F 34.9 °F 84% 29.79 in 10.0 mi NE 12.7 mph 19.6 mph N/A Rain Light Rain
8:14 AM 39.7 °F 33.7 °F 34.3 °F 81% 29.80 in 10.0 mi NNE 9.2 mph - N/A   Overcast
8:35 AM 39.7 °F 33.7 °F 34.0 °F 80% 29.82 in 10.0 mi NNE 9.2 mph - N/A   Overcast
8:55 AM 39.6 °F 34.0 °F 33.3 °F 78% 29.83 in 10.0 mi NNE 8.1 mph - N/A   Overcast
9:14 AM 39.7 °F 34.3 °F 33.3 °F 78% 29.84 in 10.0 mi NNE 8.1 mph - N/A   Overcast
9:35 AM 39.6 °F 34.0 °F 33.1 °F 78% 29.85 in 10.0 mi NNE 8.1 mph - N/A   Overcast
9:55 AM 39.2 °F 33.6 °F 33.8 °F 81% 29.86 in 10.0 mi NNE 8.1 mph - N/A Rain Light Rain
10:15 AM 38.3 °F 30.5 °F 34.3 °F 86% 29.87 in 10.0 mi NE 12.7 mph 21.9 mph N/A Rain Light Rain
10:35 AM 37.8 °F 31.3 °F 33.8 °F 86% 29.87 in 10.0 mi NNE 9.2 mph 17.3 mph N/A Rain Light Rain
10:54 AM 38.3 °F 30.5 °F 32.5 °F 80% 29.88 in 10.0 mi NNE 12.7 mph 16.1 mph N/A   Overcast
11:15 AM 38.5 °F 30.7 °F 32.0 °F 78% 29.89 in 10.0 mi NNE 12.7 mph 16.1 mph N/A   Overcast
11:35 AM 38.7 °F 31.8 °F 32.0 °F 77% 29.90 in 10.0 mi NNE 10.4 mph - N/A   Overcast
11:54 AM 38.8 °F 32.6 °F 32.0 °F 76% 29.91 in 10.0 mi NNE 9.2 mph 16.1 mph N/A   Overcast
12:15 PM 38.7 °F 33.6 °F 31.6 °F 76% 29.92 in 10.0 mi North 6.9 mph - N/A   Overcast
12:35 PM 38.5 °F 32.1 °F 30.7 °F 74% 29.92 in 10.0 mi North 9.2 mph - N/A   Overcast
12:54 PM 38.3 °F 33.2 °F 30.0 °F 72% 29.93 in 10.0 mi North 6.9 mph - N/A   Overcast
1:15 PM 38.3 °F 32.5 °F 30.9 °F 75% 29.94 in 10.0 mi North 8.1 mph - N/A   Overcast
1:35 PM 37.6 °F 30.0 °F 32.9 °F 83% 29.94 in 10.0 mi North 11.5 mph - N/A   Overcast
1:55 PM 37.4 °F 31.4 °F 33.1 °F 84% 29.94 in 7.0 mi North 8.1 mph - N/A   Overcast
2:15 PM 38.1 °F 31.7 °F 32.0 °F 79% 29.95 in 10.0 mi North 9.2 mph - N/A   Overcast
2:34 PM 37.0 °F 31.6 °F 32.5 °F 84% 29.95 in 10.0 mi NE 6.9 mph - N/A   Overcast
2:55 PM 36.7 °F 32.9 °F 32.9 °F 86% 29.96 in 7.0 mi NNE 4.6 mph - N/A   Light Drizzle
3:14 PM 37.4 °F 30.3 °F 30.9 °F 77% 29.96 in 10.0 mi North 10.4 mph - N/A   Overcast
3:35 PM 38.3 °F 33.2 °F 29.1 °F 70% 29.97 in 10.0 mi North 6.9 mph - N/A   Overcast
3:55 PM 38.5 °F 34.1 °F 28.6 °F 68% 29.98 in 10.0 mi NNW 5.8 mph - N/A   Overcast
4:14 PM 38.7 °F 32.9 °F 28.2 °F 66% 29.99 in 10.0 mi North 8.1 mph - N/A   Overcast
4:35 PM 38.3 °F 33.9 °F 29.3 °F 70% 30.00 in 10.0 mi NNW 5.8 mph - N/A   Overcast
4:55 PM 37.9 °F 32.7 °F 30.2 °F 74% 30.01 in 10.0 mi NNW 6.9 mph - N/A   Overcast
5:14 PM 37.6 °F 30.5 °F 29.3 °F 72% 30.02 in 10.0 mi NNW 10.4 mph - N/A   Overcast
5:35 PM 37.6 °F 31.6 °F 28.4 °F 69% 30.02 in 10.0 mi North 8.1 mph - N/A   Overcast
5:55 PM 37.4 °F 31.4 °F 28.4 °F 70% 30.03 in 10.0 mi North 8.1 mph - N/A   Overcast
6:15 PM 37.8 °F 33.3 °F 27.9 °F 67% 30.04 in 10.0 mi North 5.8 mph - N/A   Overcast
6:35 PM 37.9 °F 34.4 °F 28.2 °F 68% 30.05 in 10.0 mi North 4.6 mph - N/A   Overcast
6:54 PM 38.5 °F 32.1 °F 27.5 °F 65% 30.05 in 10.0 mi North 9.2 mph - N/A   Overcast
7:15 PM 38.8 °F 34.6 °F 27.9 °F 65% 30.06 in 10.0 mi North 5.8 mph - N/A   Overcast
7:35 PM 39.0 °F 34.0 °F 27.5 °F 63% 30.06 in 10.0 mi North 6.9 mph - N/A   Overcast
7:54 PM 39.2 °F 33.6 °F 28.4 °F 65% 30.07 in 10.0 mi NNW 8.1 mph - N/A   Overcast
8:15 PM 39.0 °F 34.0 °F 28.2 °F 65% 30.08 in 10.0 mi North 6.9 mph - N/A   Overcast
8:35 PM 38.8 °F 33.8 °F 28.0 °F 65% 30.08 in 10.0 mi North 6.9 mph - N/A   Overcast
8:54 PM 39.2 °F 34.2 °F 28.4 °F 65% 30.09 in 10.0 mi NNW 6.9 mph - N/A   Overcast
9:15 PM 39.2 °F 35.9 °F 28.2 °F 65% 30.10 in 10.0 mi North 4.6 mph - N/A   Overcast
9:35 PM 38.8 °F 35.4 °F 27.7 °F 64% 30.10 in 10.0 mi North 4.6 mph - N/A   Overcast
9:55 PM 39.4 °F 33.2 °F 28.4 °F 65% 30.10 in 10.0 mi NE 9.2 mph - N/A   Overcast
10:15 PM 38.8 °F 33.2 °F 28.8 °F 67% 30.11 in 10.0 mi NNE 8.1 mph - N/A   Overcast
10:34 PM 38.5 °F 32.1 °F 27.9 °F 66% 30.12 in 10.0 mi ENE 9.2 mph - N/A   Overcast
10:55 PM 38.3 °F 32.5 °F 27.0 °F 64% 30.13 in 10.0 mi NE 8.1 mph - N/A   Overcast
11:15 PM 38.3 °F 32.5 °F 27.1 °F 64% 30.14 in 10.0 mi NE 8.1 mph - N/A   Overcast
11:34 PM 37.9 °F 32.1 °F 27.0 °F 65% 30.15 in 10.0 mi ENE 8.1 mph - N/A   Overcast
11:55 PM 37.4 °F 30.3 °F 27.7 °F 68% 30.15 in 10.0 mi ENE 10.4 mph - N/A   Overcast